Погода в Ивановке

Украина / Кировоградская область     48°25′07″N   31°51′43″E
темп.,
°C
ветер,
м/с
пор.,
м/с
влажн.,
%
обл.,
%
осадки,
мм/ч
давл.,
гПа
погр.,
м
17 мая, вт
вт1700:00+11зсз348174 0.1 101768
03:00+11с357850 0.1 1017130
06:00+10с3470100 0.0 1017104
09:00+14ссз235094 0.0 1017482
12:00+17сз45395 0.0 10161971
15:00+19зсз583878 0.0 10142724
18:00+18зсз4746100 0.0 10122365
21:00+13ссз2264100 0.0 101220
18 мая, ср
ср1800:00+11ссз4953100 0.0 1012307
03:00+9ссз51056100 0.0 1013416
06:00+6ссз61261100 0.0 1013468
09:00+9ссз810644 0.0 1014999
12:00+9ссз9106981 0.6 10161338
15:00+7ссз81183100 0.8 1017906
18:00+8ссз71292100 1.2 10181132
21:00+8с8148880 1.4 1020689
19 мая, чт
чт1900:00+6ссз715895 0.0 1022516
03:00+6ссз614936 0.0 1023381
06:00+6ссз513915 0.0 1024355
09:00+11ссз710670 0.0 1025915
12:00+15с795112 0.0 10251669
15:00+18ссз78459 0.0 10242055
18:00+17сз675219 0.0 10241925
21:00+12сз3571100 0.0 102569
20 мая, пт
пт2000:00+10зсз46795 0.0 102686
03:00+8зсз47845 0.0 1025107
06:00+8зсз35855 0.0 102688
09:00+15зсз346099 0.0 1025455
12:00+19з454589 0.0 10241314
15:00+21з5640100 0.0 10221628
18:00+20з574897 0.0 10201350
21:00+15юз466298 0.0 101981
21 мая, сб
сб2100:00+13юз410655 0.0 1018147
03:00+12юз5136895 0.0 1016218
06:00+12юз5117295 0.0 1015226
09:00+18юз685851 0.0 1013380
12:00+23зюз6847100 0.0 10111084
15:00+25зюз8104196 0.0 10091747
18:00+24з6105172 0.0 10081491
21:00+17з4118182 0.1 1008258